Regional Weather Roundup
Issued by NWS

Home | Current Version | Previous Version | Text Only | Print | Product List | Glossary On
Versions: 1 2 3 4 5 6 7 8 9 10 11 12 13 14 15 16 17 18 19 20 21 22 23 24 25 26 27 28 29 30 31 32 33 34 35 36 37 38 39 40 41 42 43 44 45 46 47 48 49
000
ASUS42 KTBW 051217
RWRFL
FLORIDA REGIONAL WEATHER ROUNDUP
NATIONAL WEATHER SERVICE TAMPA BAY RUSKIN FL
800 AM EDT WED AUG 05 2015

NOTE: "FAIR" INDICATES FEW OR NO CLOUDS BELOW 12,000 FEET WITH NO
SIGNIFICANT WEATHER AND/OR OBSTRUCTIONS TO VISIBILITY.


FLZ001>010-012>015-112-114-115-051300-
PANHANDLE FLORIDA

CITY           SKY/WX    TMP DP  RH WIND       PRES   REMARKS
PENSACOLA      MOCLDY    81  73  76 SW6       30.03R
PENSACOLA NAS  HVY RAIN  77  73  87 W12G17    30.04R FOG
MILTON NAS     MOCLDY    79  76  90 SW5       30.03
CRESTVIEW      SUNNY     74  73  97 CALM      30.06R
DUKE FIELD     FAIR      75  73  95 E1        30.04R
VALPARAISO     PTSUNNY   79  75  87 E1        30.04
MARY ESTHER    MOSUNNY   82  75  81 CALM      30.03R
TRI COUNTY     FAIR      75  74  96 CALM      30.07R
PANAMA CITY    FAIR      79  76  90 CALM      30.05R
TYNDALL AFB    MOSUNNY   84  76  77 SW7       30.06R
APALACHICOLA   HVY RAIN  78  74  87 SW16G23   30.08R FOG

STATION/POSITION SKY/WX   TEMP    WIND        PRES    WAVE   SWELL
                          AIR SEA DIR/SP/G            HT/PER HT/PER
                          (F)     (DEG/KT/KT) (MB)    (FT/S) (FT/S)
30.1N   87.6W              86 86  220/ 14/ 17 1015.9R   3/ 5
29.2N   88.2W              84 85  220/ 14/ 16 1017.6R   3/ 4
28.8N   86.0W              83 86  240/  8/ 10 1018.6R   2/ 4   2/ 4
PANAMA CITY BEAC           85 86  230/ 10/ 12 1017.1R
CAPE SAN BLAS    NOT AVBL
TOWER C                    81     220/ 11/ 13 1018.4R
28.5N   84.5W              84 84  220/  6/  8 1018.7R   2/ 4   2/ 6

$$
FLZ011-016>038-118-127-128-134-139-239-051300-
NORTH FLORIDA

CITY           SKY/WX    TMP DP  RH WIND       PRES   REMARKS
MARIANNA       MOSUNNY   76  76 100 S3        30.06R
TALLAHASSEE    MOSUNNY   77  75  93 CALM      30.07R
PERRY          PTSUNNY   76  71  85 CALM      30.08S HAZE
CROSS CITY       N/A     77  73  87 S8        30.08R
LAKE CITY      CLOUDY    75  75 100 W5        30.10R FOG
GAINESVILLE    MOSUNNY   75  74  96 CALM      30.10R
MAYPORT NAS    MOSUNNY   78  77  96 SW7       30.09R FOG
JACKSONVILLE   MOSUNNY   77  76  96 SW5       30.08R
JAX NAS        MOSUNNY   81  75  82 SW5       30.10R
JAX CRAIG      SUNNY     78  76  93 SW5       30.09R
JAX CECIL      PTSUNNY   75  75 100 CALM      30.09R FOG
FERNANDINA BEA FAIR      81  77  89 SW6       30.08R
ST AUGUSTINE   SUNNY     77  75  93 SW7       30.11R FOG

STATION/POSITION SKY/WX   TEMP    WIND        PRES    WAVE   SWELL
                          AIR SEA DIR/SP/G            HT/PER HT/PER
                          (F)     (DEG/KT/KT) (MB)    (FT/S) (FT/S)
SHELL POINT                82     250/  5/  5   N/A
KEATON BEACH               80      60/  2/  3 1018.7R
CEDAR KEY                  82     230/  4/  5 1019.3R
FERNANDINA                 77 83  210/  6/  9 1017.8R
30.7N   81.3W                 82                N/A     2/11
MAYPORT                    77 82  210/  4/  5 1018.8R
31.4N   80.9W              81 83  240/ 12/ 14 1018.3R   2/ 3   2/11
ST AUGUSTINE               77 76  230/  6/  7 1019.9R

$$
FLZ040-043>046-052-053-057-058-063-144-051300-
INTERIOR CENTRAL FLORIDA

CITY           SKY/WX    TMP DP  RH WIND       PRES   REMARKS
OCALA          SUNNY     73  72  94 CALM      30.11R FOG
THE VILLAGES     N/A     75  75 100 CALM      30.01S FOG
LEESBURG       SUNNY     78  75  90 CALM      30.11R
SANFORD        SUNNY     79  74  84 CALM      30.10R
ORLANDO EXEC   SUNNY     78  77  96 CALM      30.10S
ORLANDO INTL   SUNNY     78  76  93 CALM      30.10S
WINTER HAVEN   SUNNY     79  77  94 CALM      30.11S FOG
LAKELAND       SUNNY     75  73  94 CALM      30.11S
BARTOW         SUNNY     73 N/A N/A CALM      30.11S
OKEECHOBEE       N/A    N/A N/A N/A CALM      30.10S

$$
FLZ041-047-054-059-064-141-147-051300-
EAST CENTRAL FLORIDA

CITY           SKY/WX    TMP DP  RH WIND       PRES   REMARKS
ORMOND BEACH   SUNNY    N/A N/A N/A CALM      30.10R
DAYTONA BEACH  MOSUNNY   77  74  90 CALM      30.11R
DELAND           N/A     77  75  94 CALM      30.12R
NEW SMYRNA BEA SUNNY     77  73  88 SW6       30.10S
JFK SPACE CTR  SUNNY     77  74  92 CALM      30.09S
TITUSVILLE     SUNNY     73  72  94 CALM      30.10F
PATRICK AFB    SUNNY     80  76  86 SW2       30.10R
MELBOURNE      SUNNY     78  75  90 CALM      30.10R
VERO BEACH     SUNNY     78  74  87 CALM      30.11R
FT PIERCE      SUNNY     79  76  90 CALM      30.10R
STUART         MOSUNNY   77  75  94 CALM      30.11R

STATION/POSITION SKY/WX   TEMP    WIND        PRES    WAVE   SWELL
                          AIR SEA DIR/SP/G            HT/PER HT/PER
                          (F)     (DEG/KT/KT) (MB)    (FT/S) (FT/S)
28.5N   80.2W              80 80  240/  4/  4 1019.5R
28.9N   78.5W              84 85  220/  8/ 10 1019.7R
TRIDENT PIER               76 80     CALM     1019.7R
28.4N   80.5W                 78                N/A     1/11
27.5N   80.2W                 80                N/A     1/11

$$
FLZ050-056-061-142-242-148-248-149-249-151-251-155-255-
160-260-051300-
WEST CENTRAL FLORIDA

CITY           SKY/WX    TMP DP  RH WIND       PRES   REMARKS
CRYSTAL RIVER  FAIR      73  73 100 CALM      30.10R FOG
INVERNESS      FAIR      73  73 100 CALM      30.11S FOG
BROOKSVILLE    SUNNY     74  74 100 CALM      30.11R
ZEPHYRHILLS    FAIR      64  64 100 CALM      30.11S
CLEARWATER     SUNNY     77  76  96 CALM      30.10R
TAMPA INTL     SUNNY     79  74  84 CALM      30.10S
TAMPA EXEC     SUNNY     75  73  94 CALM      30.11R FOG
PLANT CITY     SUNNY     77  77 100 CALM      30.12S
MACDILL AFB    SUNNY     76  76 100 E3        30.09
PETER O KNIGHT SUNNY     79  77  94 CALM      30.10S
ST PETERSBURG  SUNNY     81  76  84 E3        30.08S
SARASOTA       SUNNY     77  76  96 NE5       30.08S
VENICE         FAIR      77  75  94 NE5       30.10R

STATION/POSITION SKY/WX   TEMP    WIND        PRES    WAVE   SWELL
                          AIR SEA DIR/SP/G            HT/PER HT/PER
                          (F)     (DEG/KT/KT) (MB)    (FT/S) (FT/S)
CEDAR KEY                  82     230/  4/  5 1019.3R
28.5N   84.5W              84 84  220/  6/  8 1018.7R   2/ 4   2/ 6
27.3N   84.2W                 83                N/A     1/ 7
CLEARWATER BEACH NOT AVBL
MIDDLE TAMPA BAY           79     110/  5/  6 1019.3R
VENICE                     79 84   40/  5/  6 1018.8R

$$
FLZ066-069-070-075>078-162-262-165-265-051300-
SOUTHWEST FLORIDA AND KEYS

CITY           SKY/WX    TMP DP  RH WIND       PRES   REMARKS
PUNTA GORDA    SUNNY     76  76 100 NE3       30.10S
FT MYERS       SUNNY     78  76  93 SE3       30.08R
SOUTHWEST INTL SUNNY     78  74  87 CALM      30.09R
NAPLES         SUNNY     81  76  84 NE6       30.08R
MARCO ISLAND   SUNNY     77  70  78 CALM      30.08R
MARATHON       MOSUNNY   86  78  77 VRB6      30.07R HX  98
KEY WEST NAS   MOSUNNY   85  76  74 SE7       30.07R
KEY WEST INTL  SUNNY     85  74  69 SE8       30.07R

STATION/POSITION SKY/WX   TEMP    WIND        PRES    WAVE   SWELL
                          AIR SEA DIR/SP/G            HT/PER HT/PER
                          (F)     (DEG/KT/KT) (MB)    (FT/S) (FT/S)
VENICE                     79 84   40/  5/  6 1018.8R
NAPLES                        86              1019.4R
26.0N   85.6W              84 85   90/  6/  6 1018.1R   2/ 5   2/ 5
DRY TORTUGAS               85     120/  7/  8 1017.5R
NW FL BAY                  86     130/  9/ 11 1017.9
SAND KEY                   84     160/  9/ 10 1018.1R
SOMBRERO KEY               85     120/ 10/ 11 1019.2R
LONG KEY                   85 87  140/ 10/ 11 1019.2R
MOLASSES REEF              84 87  120/ 14/ 15 1018.5R

$$
FLZ067-068-071>074-168-172>174-051300-
SOUTHEAST FLORIDA

CITY           SKY/WX    TMP DP  RH WIND       PRES   REMARKS
W PALM BEACH   MOSUNNY   81  76  84 N5        30.10R
FT LAUDER-EXEC MOSUNNY   82  76  81 N3        30.09R
FT LAUDERDALE  MOSUNNY   82  78  88 N5        30.09R
POMPANO BEACH  PTSUNNY   82  76  81 CALM      30.09R
PEMBROKE PINES MOSUNNY   81  76  84 N6        30.10R
OPA LOCKA      MOSUNNY   83  76  79 N5        30.10R
MIAMI          PTSUNNY   84  75  74 CALM      30.10R
WEST KENDALL   MOSUNNY   82  77  84 N5        30.09R
HOMESTEAD      SUNNY     84  77  79 E5        30.08R

STATION/POSITION SKY/WX   TEMP    WIND        PRES    WAVE   SWELL
                          AIR SEA DIR/SP/G            HT/PER HT/PER
                          (F)     (DEG/KT/KT) (MB)    (FT/S) (FT/S)
PORT EVERGLADES            85     120/  3/  7 1018.9R
VIRGINIA KEY               84 87  110/  6/  8 1018.0R
LAKE WORTH                 82 86  290/  1/  2 1018.4R
SETTLEMENT POINT           85     130/  3/  3 1020.1R

$$



USA.gov is the U.S. government's official web portal to all federal, state and local government web resources and services.